Weather History for Adelaide, SA

Change the Weather History Date:

Saturday, November 17, 2012

  Actual Average Record
Temperature  
Mean Temperature 58 °F -  
Max Temperature 66 °F 77 °F 95 °F (2002)
Min Temperature 50 °F 56 °F 46 °F (2006)
Degree Days  
Heating Degree Days 7    
Growing Degree Days 8 (Base 50)    
Moisture  
Dew Point 46 °F    
Average Humidity 58    
Maximum Humidity 76    
Minimum Humidity 36    
Precipitation  
Precipitation 0.00 in 0.03 in - ()
Sea Level Pressure  
Sea Level Pressure 30.05 in    
Wind  
Wind Speed 9 mph ()    
Max Wind Speed 21 mph    
Max Gust Speed -    
Visibility 8.0 miles    
Events      
Averages and records for this station are not official NWS values.
T = Trace of Precipitation, MM = Missing Value Source: Averaged Metar Reports

Daily Weather History Graph

Daily Weather History Graph

Search for Another Location

Airport:

Trip Planner

Search our weather history database for the weather conditions in past years. The results will help you decide how hot, cold, wet, or windy it might be!

Date:

Astronomy

Nov. 17, 2012 Rise Set
Actual Time 6:00 AM ACDT 8:01 PM ACDT
Civil Twilight 5:32 AM ACDT 8:29 PM ACDT
Nautical Twilight 4:58 AM ACDT 9:03 PM ACDT
Astronomical Twilight 4:21 AM ACDT 9:40 PM ACDT
Moon 9:03 AM ACDT (11/17) 11:28 PM ACDT (11/17)
Length of Visible Light 14h 56m
Length of Day
14h 00m
Waxing Crescent, 14% of the Moon is Illuminated
Nov 17
Waxing Crescent
Nov 21
First Quarter
Nov 29
Full
Dec 7
Last Quarter
Dec 13
New

Hourly Weather History & Observations

Time (ACDT) Temp. Dew Point Humidity Pressure Visibility Wind Dir Wind Speed Gust Speed Precip Events Conditions
12:00 AM 56 °F 46 °F 60% 30.10 in 19 mi SSE 9.2 mph - -   Partly Cloudy
12:00 AM 55.4 °F 46.4 °F 72% 30.09 in 6.2 mi SSE 9.2 mph - N/A   Partly Cloudy
12:30 AM 55.4 °F 46.4 °F 72% 30.09 in 6.2 mi SSE 10.4 mph - N/A   Partly Cloudy
1:00 AM 55.4 °F 46.4 °F 72% 30.06 in 6.2 mi SE 10.4 mph - N/A   Partly Cloudy
1:30 AM 55 °F 46 °F 64% 30.07 in - SE 10.4 mph - -  
1:30 AM 55.4 °F 46.4 °F 72% 30.06 in 6.2 mi SE 10.4 mph - N/A   Partly Cloudy
2:00 AM 55.4 °F 46.4 °F 72% 30.04 in 6.2 mi SE 10.4 mph - N/A   Partly Cloudy
2:30 AM 55.4 °F 46.4 °F 72% 30.04 in 6.2 mi ESE 10.4 mph - N/A   Partly Cloudy
3:00 AM 55 °F 45 °F 61% 30.05 in 22 mi SE 8.1 mph - -   Partly Cloudy
3:00 AM 55.4 °F 44.6 °F 67% 30.04 in 6.2 mi SE 8.1 mph - N/A   Partly Cloudy
3:30 AM 55.4 °F 44.6 °F 67% 30.04 in 6.2 mi ESE 9.2 mph - N/A   Partly Cloudy
4:00 AM 53.6 °F 44.6 °F 72% 30.04 in 6.2 mi ESE 6.9 mph - N/A   Partly Cloudy
4:30 AM 54 °F 45 °F 63% 30.05 in - ESE 9.2 mph - -  
4:30 AM 53.6 °F 44.6 °F 72% 30.04 in 6.2 mi ESE 9.2 mph - N/A   Partly Cloudy
5:00 AM 53.6 °F 44.6 °F 72% 30.06 in 6.2 mi ESE 5.8 mph - N/A   Partly Cloudy
5:30 AM 51.8 °F 44.6 °F 76% 30.06 in - ENE 5.8 mph - N/A   Clear
6:00 AM 52 °F 44 °F 68% 30.08 in 22 mi ENE 4.6 mph - -   Partly Cloudy
6:00 AM 51.8 °F 44.6 °F 76% 30.06 in - ENE 4.6 mph - N/A   Clear
6:30 AM 51.8 °F 44.6 °F 76% 30.06 in - SSE 3.5 mph - N/A   Clear
7:00 AM 53.6 °F 42.8 °F 67% 30.06 in - SSE 2.3 mph - N/A   Clear
7:30 AM 58 °F 44 °F 49% 30.09 in - ESE 3.5 mph - -  
7:30 AM 57.2 °F 44.6 °F 63% 30.09 in 6.2 mi ESE 3.5 mph - N/A   Scattered Clouds
8:00 AM 59.0 °F 44.6 °F 59% 30.09 in 6.2 mi NNE 3.5 mph - N/A   Partly Cloudy
8:30 AM 60.8 °F 44.6 °F 55% 30.09 in 6.2 mi SSE 2.3 mph - N/A   Partly Cloudy
9:00 AM 61 °F 44 °F 43% 30.11 in 19 mi West 4.6 mph - -   Partly Cloudy
9:00 AM 60.8 °F 44.6 °F 55% 30.09 in 6.2 mi West 4.6 mph - N/A   Partly Cloudy
9:30 AM 60.8 °F 44.6 °F 55% 30.09 in 6.2 mi South 4.6 mph - N/A   Partly Cloudy
10:00 AM 62.6 °F 44.6 °F 52% 30.09 in 6.2 mi WSW 6.9 mph - N/A   Partly Cloudy
10:30 AM 63 °F 43 °F 36% 30.09 in - West 8.1 mph - -  
10:30 AM 62.6 °F 42.8 °F 48% 30.09 in 6.2 mi West 8.1 mph - N/A   Partly Cloudy
11:00 AM 62.6 °F 42.8 °F 48% 30.09 in 6.2 mi West 9.2 mph - N/A   Partly Cloudy
11:30 AM 64.4 °F 44.6 °F 49% 30.06 in 6.2 mi West 11.5 mph - N/A   Partly Cloudy
12:00 PM 64 °F 44 °F 37% 30.07 in 19 mi WSW 11.5 mph - -   Partly Cloudy
12:00 PM 64.4 °F 44.6 °F 49% 30.06 in 6.2 mi WSW 11.5 mph - N/A   Partly Cloudy
12:30 PM 64.4 °F 46.4 °F 52% 30.06 in 6.2 mi WSW 11.5 mph - N/A   Partly Cloudy
1:00 PM 66.2 °F 46.4 °F 49% 30.04 in 6.2 mi WSW 13.8 mph - N/A   Partly Cloudy
1:30 PM 65 °F 47 °F 41% 30.05 in - WSW 15.0 mph - -  
1:30 PM 66.2 °F 46.4 °F 49% 30.04 in 6.2 mi WSW 15.0 mph - N/A   Partly Cloudy
2:00 PM 66.2 °F 48.2 °F 52% 30.04 in 6.2 mi WSW 15.0 mph - N/A   Partly Cloudy
2:30 PM 66.2 °F 48.2 °F 52% 30.04 in 6.2 mi WSW 15.0 mph - N/A   Partly Cloudy
3:00 PM 66 °F 49 °F 44% 30.03 in 19 mi SW 17.3 mph - -   Partly Cloudy
3:00 PM 66.2 °F 50.0 °F 56% 30.01 in 6.2 mi SW 17.3 mph - N/A   Partly Cloudy
3:30 PM 64.4 °F 48.2 °F 56% 30.01 in 6.2 mi SW 18.4 mph - N/A   Partly Cloudy
4:00 PM 64.4 °F 48.2 °F 56% 30.01 in 6.2 mi SW 18.4 mph - N/A   Partly Cloudy
4:30 PM 65 °F 48 °F 44% 30.02 in - SSW 18.4 mph - -  
4:30 PM 66.2 °F 48.2 °F 52% 30.01 in 6.2 mi SSW 18.4 mph - N/A   Partly Cloudy
5:00 PM 66.2 °F 48.2 °F 52% 30.01 in 6.2 mi SSW 16.1 mph - N/A   Partly Cloudy
5:30 PM 66.2 °F 48.2 °F 52% 29.98 in 6.2 mi SSW 17.3 mph - N/A   Partly Cloudy
6:00 PM 66 °F 50 °F 45% 30.00 in 19 mi SSW 19.6 mph - -   Partly Cloudy
6:00 PM 66.2 °F 50.0 °F 56% 29.98 in 6.2 mi SSW 19.6 mph - N/A   Partly Cloudy
6:30 PM 64.4 °F 48.2 °F 56% 29.98 in 6.2 mi SSW 18.4 mph - N/A   Partly Cloudy
7:00 PM 64.4 °F 48.2 °F 56% 30.01 in 6.2 mi SSW 20.7 mph - N/A   Partly Cloudy
7:30 PM 63 °F 47 °F 45% 30.02 in - SSW 18.4 mph - -  
7:30 PM 62.6 °F 46.4 °F 55% 30.01 in 6.2 mi SSW 18.4 mph - N/A   Partly Cloudy
8:00 PM 62.6 °F 44.6 °F 52% 30.01 in 6.2 mi South 13.8 mph - N/A   Partly Cloudy
8:30 PM 60.8 °F 42.8 °F 52% 30.04 in - South 15.0 mph - N/A   Clear
9:00 PM 59 °F 43 °F 45% 30.06 in 19 mi SSE 12.7 mph - -   Partly Cloudy
9:00 PM 59.0 °F 42.8 °F 55% 30.04 in - SSE 12.7 mph - N/A   Clear
9:30 PM 57.2 °F 44.6 °F 63% 30.06 in - SSE 10.4 mph - N/A   Clear
10:00 PM 57.2 °F 44.6 °F 63% 30.06 in - SSE 9.2 mph - N/A   Clear
10:30 PM 55 °F 45 °F 60% 30.07 in - South 8.1 mph - -  
10:30 PM 55.4 °F 44.6 °F 67% 30.06 in - South 8.1 mph - N/A   Clear
11:00 PM 53.6 °F 44.6 °F 72% 30.06 in - South 8.1 mph - N/A   Clear
11:30 PM 53.6 °F 44.6 °F 72% 30.06 in - SSE 8.1 mph - N/A   Clear